{"data":{"norad_id":59216,"epoch":"2026-05-25T00:44:27.968064Z","epoch_age_seconds":69420,"freshness":"FRESH","line1":"1 59216U 24046R   26145.03087926  .00001908  00000+0  76579-4 0  9997","line2":"2 59216  53.1591 161.0314 0001288  75.2984 284.8160 15.30180359124606","mean_motion":15.30180359,"eccentricity":0.0001288,"inclination_deg":53.1591,"raan_deg":161.0314,"arg_perigee_deg":75.2984,"mean_anomaly_deg":284.816,"bstar":7.6579e-5,"rev_number":12460,"period_min":94.106553618363,"perigee_km":474.39099523226,"apogee_km":476.15643383233,"semimajor_km":6853.4107145323,"source":"CELESTRAK","updated_at":"2026-05-25T13:38:18.867149Z"}}